Location: Moscow
(55.7500°N, 37.5830°E)
Time: 17:30:46
(UTC+03:00)

Transit 2A - Pass Details

Date: 05 December 2021
Orbit: 591 x 967 km, 66.7° (Epoch: 21 January)

Event Time Altitude Azimuth Distance (km) Brightness Sun altitude
Rises 02:50:52 0° 255° (WSW) 3,451 - -46.6°
Reaches altitude 10° 02:53:25 10° 263° (W) 2,565 - -46.3°
Maximum altitude 02:59:08 43° 334° (NNW) 1,304 - -45.6°
Exits shadow 03:03:36 18° 38° (NE) 2,194 8.7 -45.1°
Drops below altitude 10° 03:05:11 10° 45° (NE) 2,710 9.4 -44.9°
Sets 03:07:57 0° 52° (NE) 3,666 10.3 -44.6°
